Regional Weather Roundup
Issued by NWS

Home | Current Version | Previous Version | Graphics & Text | Print | Product List | Glossary On
Versions: 1 2 3 4 5 6 7 8 9 10 11 12 13 14 15 16 17 18 19 20 21 22 23 24 25 26 27 28 29 30 31 32 33 34 35 36 37 38 39 40 41 42 43 44 45 46 47 48 49 50
000
ASUS43 KIND 230609
RWRIN

WEATHER ROUNDUP FOR INDIANA
NATIONAL WEATHER SERVICE INDIANAPOLIS IN
200 AM EDT TUE SEP 23 2014

NOTE: "FAIR" INDICATES FEW OR NO CLOUDS BELOW 12,000 FEET WITH NO
SIGNIFICANT WEATHER AND/OR OBSTRUCTIONS TO VISIBILITY.

* - STATION DOES NOT REPORT WEATHER SUCH AS PRECIPITATION OR FOG.

+ - STATION NOT QUALITY CONTROLLED BY THE NATIONAL WEATHER SERVICE.
    USE DATA WITH CAUTION...ESPECIALLY DEWPOINT AND RELATIVE
    HUMIDITY OBSERVATIONS.

INZ001>003-010>013-019-020-230700-
NORTHWEST INDIANA

CITY           SKY/WX    TMP DP  RH WIND       PRES   REMARKS
GARY /AIRPORT/ CLEAR     46  44  93 CALM      30.29R
KNOX *+        CLEAR     44  42  93 CALM      30.28S
LA PORTE +     CLEAR     42  42 100 CALM      30.29S
6HR MIN TEMP:  42; 6HR MAX TEMP:  50;

MICHIGAN CITY+ CLEAR     43  43 100 CALM      30.29S FOG
MONTICELLO +   CLEAR     46  45  97 CALM      30.29R
RENSSELAER +   CLEAR     43  43 100 CALM      30.30R
VALPARAISO     CLEAR     47  44  90 CALM      30.29S
6HR MIN TEMP:  45; 6HR MAX TEMP:  54;


$$

LMZ046-743>745-230700-
SOUTHERN LAKE MICHIGAN

STATION/POSITION TIME  TEMP WIND        PRES
                       AIR  DIR/SP/G
                 (UTC) (F)  (DEG/KT/KT) (MB)

$$

INZ004-005-014>016-021>024-230700-
NORTH CENTRAL INDIANA

CITY           SKY/WX    TMP DP  RH WIND       PRES   REMARKS
GOSHEN         CLEAR    N/A N/A N/A CALM      30.29S
LOGANSPORT +   CLEAR     43  41  93 CALM      30.31R
PERU/GRISSOM   CLEAR     47  47 100 SE2       30.30R
6HR MIN TEMP:  47; 6HR MAX TEMP:  62;

ROCHESTER +    CLEAR     46  46 100 CALM      30.30R
SOUTH BEND     CLEAR     48  44  86 CALM      30.30R
6HR MIN TEMP:  47; 6HR MAX TEMP:  54;

WARSAW +       CLEAR     43  43 100 CALM      30.29S

$$

INZ006>009-017-018-025>027-230700-
NORTHEAST INDIANA

CITY           SKY/WX    TMP DP  RH WIND       PRES   REMARKS
ANGOLA *+      CLEAR     45  43  93 CALM      30.29R
AUBURN +       CLEAR     45  43  93 CALM      30.30R
FORT WAYNE     CLEAR     47  44  90 S3        30.30R
6HR MIN TEMP:  46; 6HR MAX TEMP:  55;

HUNTINGTON +   CLEAR     44  44  99 CALM      30.30R
6HR MIN TEMP:  44; 6HR MAX TEMP:  54;


$$

INZ028-029-035-036-043>045-051>053-230700-
WEST CENTRAL INDIANA

CITY           SKY/WX    TMP DP  RH WIND       PRES   REMARKS
GREENCASTLE +  CLEAR     46  45  93 CALM      30.30S
LAFAYETTE      CLEAR     47  45  93 CALM      30.30R
6HR MIN TEMP:  46; 6HR MAX TEMP:  56;

TERRE HAUTE    CLEAR     44  43  96 CALM      30.29S
6HR MIN TEMP:  44; 6HR MAX TEMP:  57;


$$

INZ030>032-037>040-046>048-054>057-064-065-230700-
CENTRAL INDIANA

CITY           SKY/WX    TMP DP  RH WIND       PRES   REMARKS
CP ATTERBURY + CLEAR     43  41  93 CALM      30.30S
FRANKFORT +    CLEAR    N/A N/A N/A CALM      30.31R
INDIANAPOLIS   CLEAR     51  43  74 NE6       30.29R
6HR MIN TEMP:  51; 6HR MAX TEMP:  61;

-EAGLE CREEK   CLEAR     51  43  74 NE3       30.30R
6HR MIN TEMP:  50; 6HR MAX TEMP:  60;

KOKOMO *+      CLEAR     45  39  81 CALM      30.30S
MARION +       CLEAR     43  41  93 CALM      30.31R
MT COMFORT *+  CLEAR     43 N/A N/A CALM      30.30R
SHELBYVILLE    CLEAR     46  42  86 CALM      30.29R
6HR MIN TEMP:  45; 6HR MAX TEMP:  56;

ZIONSVILLE +   CLEAR     48  43  84 CALM      30.31R
6HR MIN TEMP:  45; 6HR MAX TEMP:  55;


$$

INZ033-034-041-042-049-050-058-059-230700-
EAST CENTRAL INDIANA

CITY           SKY/WX    TMP DP  RH WIND       PRES   REMARKS
MUNCIE         CLEAR     46  43  89 CALM      30.30R
6HR MIN TEMP:  44; 6HR MAX TEMP:  54;


$$

INZ060-061-067>069-081>083-085>088-230700-
SOUTHWEST INDIANA

CITY           SKY/WX    TMP DP  RH WIND       PRES   REMARKS
EVANSVILLE     CLEAR     50  47  89 CALM      30.27S
6HR MIN TEMP:  50; 6HR MAX TEMP:  63;

WASHINGTON +   CLEAR     43  43 100 CALM      30.28R FOG
6HR MIN TEMP:  43; 6HR MAX TEMP:  61;


$$

INZ062-063-066-070>080-084-089>092-230700-
SOUTH CENTRAL AND SOUTHEAST INDIANA

CITY           SKY/WX    TMP DP  RH WIND       PRES   REMARKS
BLOOMINGTON    CLEAR     45  43  93 CALM      30.29R FOG
6HR MIN TEMP:  43; 6HR MAX TEMP:  54; 6HR PCP: TRACE;


$$




USA.gov is the U.S. government's official web portal to all federal, state and local government web resources and services.